Voltar ao catálogo

STARLINK-32355

AtivoComunicaçõesVLEO
NORAD 61634·PAYLOAD·🇺🇸 United States

Lançado Oct 23, 2024 de Cape Canaveral Space Force Station

Loading…

Próximas Passagens (próximas 24 horas)

TLE

AtualizadoSource: CelesTrak SupGP

Época: Sep 14, 2026, 21:14 UTC

1 61634C 24191P   26257.88520833 -.00027328  00000+0 -98922-3 0  2579
2 61634  43.0001 169.8215 0000925 276.3556 226.0483 15.27612079    18

Acompanhe STARLINK-32355 em tempo real com AllMySat

Download on the App Store